Total_Precipitation_Accumulation
0.02 0.03 0.06 0.10 0.21 0.48 0.63 0.52 0.66 0.68 0.75 0.74 0.74 0.80 0.84 0.93 1.43 2.37 1.59 1.01 0.67 0.49 0.49 0.55 0.54 0.50 0.54 0.54 0.58 0.60 0.65 0.70 0.71 0.72 0.71 0.73 0.80 0.84 0.88 1.02 1.16 1.31 1.44 1.51 1.72 2.00 2.20 2.16 2.09
0.03 0.05 0.07 0.13 0.33 0.57 0.67 0.68 0.83 0.65 0.70 0.74 0.73 0.76 0.76 0.78 0.76 0.89 0.96 0.95 0.75 0.59 0.67 0.61 0.51 0.51 0.55 0.55 0.61 0.64 0.69 0.77 0.84 0.87 0.80 0.80 0.86 0.93 0.98 1.15 1.24 1.36 1.56 1.61 1.64 1.84 2.06 2.07 2.02
0.04 0.06 0.12 0.24 0.39 0.56 0.78 0.75 0.78 0.68 0.76 0.76 0.83 0.86 0.95 1.00 0.86 0.87 0.92 0.85 0.80 0.70 0.77 0.69 0.56 0.54 0.54 0.62 0.61 0.66 0.73 0.84 0.92 1.02 1.08 1.01 0.91 0.95 1.09 1.25 1.31 1.40 1.60 1.91 1.96 2.00 2.18 1.99 1.99
0.05 0.08 0.15 0.32 0.36 0.38 0.51 0.62 0.71 0.81 0.95 0.83 0.84 0.95 1.00 0.99 0.96 0.99 1.01 0.88 0.72 0.70 0.74 0.70 0.67 0.64 0.63 0.67 0.70 0.80 0.88 0.93 0.96 1.08 1.18 1.24 1.11 1.07 1.27 1.40 1.40 1.49 1.62 1.92 2.33 2.26 2.40 2.35 2.17
0.07 0.15 0.24 0.38 0.36 0.39 0.50 0.57 0.70 0.90 0.96 0.86 0.85 1.14 1.37 1.32 1.10 1.06 1.02 0.91 0.76 0.73 0.75 0.85 0.89 0.91 0.90 0.85 0.85 0.93 0.99 1.04 1.08 1.12 1.21 1.35 1.30 1.30 1.59 1.61 1.55 1.63 1.71 1.87 2.10 2.25 2.49 2.39 2.15
0.11 0.20 0.36 0.47 0.42 0.40 0.47 0.62 0.76 0.88 1.01 0.95 0.97 1.32 1.89 1.84 1.57 1.38 1.17 1.10 0.99 0.85 0.93 1.10 1.23 1.31 1.21 1.12 1.08 1.09 1.08 1.09 1.16 1.31 1.30 1.33 1.43 1.64 1.91 1.78 1.70 1.80 1.89 1.94 2.05 2.21 2.35 2.34 2.25
0.11 0.19 0.32 0.44 0.45 0.52 0.47 0.54 0.79 0.99 1.15 1.27 1.13 1.41 1.90 2.02 1.79 1.58 1.64 1.53 1.34 1.25 1.33 1.32 1.26 1.25 1.28 1.26 1.22 1.29 1.26 1.22 1.25 1.41 1.51 1.44 1.53 1.80 2.11 2.03 1.95 1.90 1.88 1.92 2.08 2.43 2.43 2.26 2.26
0.06 0.13 0.26 0.38 0.46 0.53 0.52 0.61 0.82 1.12 1.31 1.33 1.10 1.46 2.02 2.01 1.79 1.88 2.07 2.02 2.01 2.11 2.34 1.84 1.47 1.33 1.22 1.24 1.35 1.45 1.59 1.51 1.42 1.50 1.68 1.71 1.77 1.98 2.28 2.16 2.08 2.03 2.03 2.03 2.26 2.67 2.73 2.56 2.37
0.06 0.12 0.21 0.35 0.44 0.50 0.53 0.67 0.74 0.78 1.05 1.04 0.94 1.17 1.73 1.74 1.68 2.02 2.47 2.74 2.65 2.83 3.05 2.33 1.85 1.62 1.50 1.47 1.52 1.64 1.84 1.95 1.83 1.79 1.86 2.06 2.33 2.69 2.66 2.37 2.37 2.29 2.37 2.40 2.49 2.73 2.84 2.87 2.79
0.08 0.16 0.24 0.27 0.34 0.45 0.55 0.62 0.78 0.84 1.06 1.09 0.98 1.06 1.28 1.73 1.95 2.28 2.62 3.25 3.25 2.92 2.80 2.52 2.30 1.97 1.80 1.73 2.00 2.13 2.08 2.18 2.07 2.25 2.18 2.45 3.11 3.29 2.78 2.79 2.75 2.64 2.69 2.84 2.97 2.98 2.96 2.83 2.77
0.10 0.22 0.22 0.25 0.35 0.52 0.64 0.69 0.88 1.15 1.32 1.32 1.31 1.45 1.74 2.05 2.22 2.52 2.82 3.31 3.53 3.40 2.96 2.74 2.52 2.37 2.21 2.29 2.54 2.65 2.79 2.86 2.69 2.82 2.83 3.02 3.17 3.12 3.03 3.00 2.97 3.07 3.07 3.30 3.49 3.32 3.00 2.81 2.81
0.10 0.16 0.17 0.30 0.36 0.44 0.63 0.72 0.84 1.13 1.44 1.51 1.58 1.78 2.20 2.43 2.64 2.97 3.18 3.48 3.50 3.58 3.45 2.95 2.86 2.93 3.13 3.14 3.07 3.05 3.07 3.16 3.11 3.18 3.06 3.20 3.41 3.41 3.23 3.20 3.17 3.32 3.33 3.59 3.63 3.61 3.44 3.18 3.03
0.13 0.20 0.21 0.27 0.34 0.45 0.52 0.70 0.81 1.05 1.09 1.29 1.61 1.96 2.20 2.20 2.64 3.15 3.24 3.50 3.58 3.63 3.55 3.27 3.46 3.56 3.65 3.70 3.70 3.43 3.35 3.59 3.62 3.58 3.47 3.55 3.63 3.38 3.31 3.28 3.31 3.23 3.42 3.63 3.72 3.59 3.46 3.35 3.20
0.14 0.15 0.19 0.25 0.29 0.39 0.46 0.62 0.81 1.07 1.19 1.36 1.58 1.74 1.89 2.15 2.68 3.11 3.32 3.68 3.60 3.63 3.87 3.84 3.95 3.85 3.80 3.87 4.08 4.10 3.77 3.93 4.14 4.22 4.06 3.89 3.86 3.72 3.71 3.77 3.73 3.51 3.54 3.69 3.87 3.79 3.67 3.42 3.27
0.16 0.16 0.22 0.27 0.28 0.31 0.41 0.71 0.85 1.02 1.17 1.26 1.40 1.47 1.64 2.16 2.57 3.14 3.49 3.84 3.83 3.85 3.93 3.97 3.87 4.08 4.25 4.26 4.26 4.30 4.19 4.16 4.31 4.54 4.55 4.19 3.94 4.06 4.09 4.27 4.26 3.97 3.93 4.04 4.16 4.17 4.05 3.64 3.36
0.18 0.21 0.33 0.35 0.33 0.35 0.50 0.95 1.12 1.07 1.05 1.18 1.25 1.31 1.56 2.15 2.62 2.99 3.33 3.69 3.73 3.86 4.18 4.14 3.76 4.22 4.46 4.42 4.41 4.21 4.25 4.50 4.70 4.75 4.86 4.55 4.20 4.11 4.31 4.30 4.14 4.14 4.29 4.52 4.69 4.59 4.53 4.32 4.11
0.23 0.28 0.39 0.45 0.41 0.43 0.56 0.95 1.25 1.17 1.09 1.15 1.14 1.21 1.44 1.80 2.36 2.76 3.15 3.56 3.81 4.02 4.49 4.32 4.09 4.30 4.45 4.54 4.64 4.41 4.52 4.82 4.94 5.09 5.12 4.69 4.28 4.20 4.51 4.63 4.62 4.53 4.63 4.76 4.53 4.68 4.63 4.79 4.63
0.27 0.34 0.47 0.53 0.50 0.49 0.65 0.97 1.24 1.35 1.31 1.27 1.26 1.41 1.63 1.70 1.94 2.28 2.80 3.38 3.76 4.32 5.04 4.66 4.27 4.28 4.64 4.69 4.57 4.60 4.71 4.99 5.30 5.36 5.19 4.89 4.73 4.53 4.80 4.81 4.87 4.94 5.13 5.06 4.95 4.99 4.79 4.66 4.61
0.26 0.35 0.46 0.59 0.54 0.58 0.74 1.05 1.29 1.49 1.47 1.31 1.40 1.68 1.79 1.77 1.91 2.13 2.64 3.32 3.71 4.24 4.74 4.73 4.53 4.63 4.76 4.80 4.60 4.79 4.98 5.27 5.57 5.50 5.40 5.31 5.19 5.10 5.27 5.34 5.32 5.16 5.16 5.10 5.00 4.97 4.89 4.56 4.39
0.22 0.32 0.44 0.58 0.57 0.65 0.79 1.10 1.47 1.62 1.64 1.58 1.60 1.85 1.81 1.89 2.09 2.38 2.90 3.25 3.62 3.97 4.24 4.55 4.70 4.75 4.56 4.95 5.24 5.54 5.92 5.98 6.25 6.49 6.54 6.32 6.02 5.83 5.70 5.78 5.48 5.19 5.13 5.05 4.96 4.86 4.72 4.31 4.18
0.19 0.25 0.39 0.49 0.53 0.60 0.80 1.35 1.58 1.73 1.70 1.74 1.85 2.12 2.11 2.14 2.37 2.72 3.05 3.20 3.43 3.77 4.13 4.48 4.84 4.97 4.93 5.45 6.00 6.44 6.84 6.77 6.82 6.76 6.73 6.66 6.24 5.91 5.74 5.53 5.41 5.27 5.08 4.90 4.89 4.82 4.72 4.43 4.20
0.19 0.16 0.25 0.35 0.51 0.72 0.74 1.36 1.64 1.89 1.92 1.78 1.97 2.18 2.29 2.10 2.15 2.48 2.82 3.28 3.25 3.50 3.91 4.27 4.72 5.15 5.49 5.93 6.43 6.93 7.28 7.51 7.32 6.99 6.70 6.33 5.84 5.54 5.20 5.04 5.17 5.12 4.87 4.64 4.31 4.22 4.27 4.28 4.09
0.16 0.14 0.21 0.32 0.45 0.69 0.77 1.19 1.72 1.98 2.08 1.93 2.02 2.07 2.19 2.07 2.04 2.25 2.40 2.74 3.04 3.30 3.66 4.10 4.47 4.91 5.58 6.36 6.94 7.47 7.81 7.82 7.26 6.67 6.13 5.66 5.21 4.87 4.64 4.63 4.80 4.76 4.51 4.27 3.98 3.85 3.68 3.65 3.76
0.13 0.21 0.31 0.42 0.58 0.96 0.82 1.14 1.91 2.09 2.13 2.16 2.09 2.01 2.09 2.09 2.11 2.28 2.41 2.71 2.93 3.04 3.33 3.89 4.45 4.85 5.43 6.21 6.80 7.16 7.33 7.25 6.79 6.17 5.65 5.19 4.70 4.29 3.98 3.85 3.84 3.82 3.66 3.52 3.47 3.48 3.40 3.37 3.47
0.16 0.39 0.75 0.97 1.05 1.02 0.82 1.16 1.99 2.24 2.10 2.09 2.15 2.21 2.30 2.32 2.33 2.33 2.33 2.44 2.69 2.86 3.14 3.61 4.15 4.67 5.06 5.53 6.03 6.08 6.15 5.90 5.51 5.30 5.00 4.47 4.00 3.62 3.30 3.16 3.11 3.15 3.15 3.07 3.10 3.17 3.18 3.12 3.21
0.16 0.35 0.89 1.15 1.13 1.10 1.16 1.75 2.44 2.38 2.20 2.13 2.03 2.03 2.17 2.24 2.17 2.24 2.21 2.40 2.75 3.04 3.32 3.61 3.86 4.20 4.58 4.76 4.91 4.79 4.64 4.56 4.41 4.20 3.80 3.43 3.15 2.95 2.89 2.83 2.68 2.68 2.75 2.75 2.93 2.89 2.80 2.80 2.83
0.19 0.26 0.41 0.65 0.84 1.23 1.61 2.17 2.74 2.67 2.44 2.22 2.11 2.05 2.11 2.04 1.99 2.09 2.20 2.49 2.78 3.06 3.25 3.51 3.70 3.79 3.78 3.83 3.90 3.84 3.74 3.60 3.53 3.44 3.11 2.81 2.66 2.51 2.50 2.47 2.42 2.33 2.30 2.33 2.37 2.37 2.43 2.50 2.43
0.17 0.23 0.37 0.73 1.18 1.51 1.82 2.48 3.04 3.08 2.78 2.25 2.05 1.96 2.03 2.11 2.10 2.13 2.24 2.50 2.58 2.65 2.85 3.12 3.28 3.48 3.46 3.29 3.21 3.27 3.22 3.01 2.83 2.67 2.49 2.32 2.26 2.23 2.22 2.13 2.10 2.10 2.14 2.12 2.07 2.07 2.14 2.20 2.22
0.27 0.35 0.44 0.74 0.94 1.37 2.09 2.88 2.88 3.19 3.03 2.64 2.31 2.08 2.15 2.27 2.22 2.17 2.29 2.40 2.32 2.27 2.32 2.51 2.77 3.09 3.10 2.97 2.85 2.91 2.86 2.71 2.52 2.37 2.23 2.20 2.08 2.05 1.97 1.96 1.97 1.90 1.89 1.96 2.02 2.01 2.07 2.16 2.14
0.31 0.41 0.53 0.94 1.07 1.13 1.96 3.09 2.73 2.79 2.95 2.83 2.56 2.37 2.28 2.32 2.34 2.22 2.23 2.30 2.29 2.17 2.08 2.27 2.38 2.47 2.50 2.51 2.57 2.70 2.64 2.53 2.35 2.21 2.16 2.12 1.97 1.92 1.90 1.92 1.87 1.74 1.70 1.88 1.96 1.95 1.94 2.05 2.00